KI7RM-1 Weather Reports


Display with metric or nautical units.
time (UTC)temp
F
wind
direction
speed
MPH
gust
MPH
rain 1hr
in
rain 24hr
in
rain mn
in
humidity
%
barometer
mb
20260503175852 72 0 2.0 8.0 0.00 0.00 0.00 61 1012.2
20260503175348 71 347 1.0 8.0 0.00 0.00 0.00 60 1012.3
20260503174849 71 9 3.0 7.0 0.00 0.00 0.00 62 1012.4
20260503174344 71 358 0.0 7.0 0.00 0.00 0.00 62 1012.4
20260503173848 70 200 0.0 6.0 0.00 0.00 0.00 63 1012.4
20260503173333 70 311 3.0 6.0 0.00 0.00 0.00 64 1012.5
20260503172837 70 346 1.0 6.0 0.00 0.00 0.00 65 1012.5
20260503172337 69 354 0.0 5.0 0.00 0.00 0.00 65 1012.5
20260503171836 69 353 4.0 5.0 0.00 0.00 0.00 66 1012.7
20260503171336 69 296 0.0 4.0 0.00 0.00 0.00 66 1012.6
20260503170852 69 358 0.0 2.0 0.00 0.00 0.00 66 1012.6
20260503150842 57 331 0.0 1.0 0.00 0.00 0.00 98 1013.3
20260503150337 56 331 1.0 1.0 0.00 0.00 0.00 97 1013.2
20260503131348 54 331 0.0 0.0 0.00 0.00 0.00 96 1012.8
20260503130848 53 331 0.0 0.0 0.00 0.00 0.00 96 1012.7
20260503130334 54 331 0.0 0.0 0.00 0.00 0.00 95 1012.7
20260503110345 54 331 0.0 0.0 0.00 0.00 0.00 95 1012.9
20260503090333 56 331 0.0 0.0 0.00 0.01 0.00 92 1013.3
20260503080837 57 331 0.0 0.0 0.00 0.01 0.00 89 1013.3
20260503072340 59 331 0.0 0.0 0.00 0.01 0.00 87 1013.3
20260503071846 59 331 0.0 0.0 0.00 0.01 0.00 86 1013.4
20260503071344 59 331 0.0 0.0 0.00 0.01 0.00 86 1013.4
20260503070838 59 331 0.0 0.0 0.00 0.01 0.00 86 1013.4
20260503070338 59 331 0.0 0.0 0.00 0.01 0.00 86 1013.4
20260503054837 62 331 0.0 0.0 0.00 0.01 0.00 81 1013.4
20260503054343 62 331 0.0 0.0 0.00 0.01 0.00 81 1013.4
20260503053848 62 331 0.0 0.0 0.00 0.01 0.00 80 1013.3
20260503053345 62 331 0.0 0.0 0.00 0.01 0.00 80 1013.2
20260503052846 62 331 0.0 0.0 0.00 0.01 0.00 80 1013.2
20260503052342 62 331 0.0 0.0 0.00 0.01 0.00 79 1013.1
20260503051840 63 331 0.0 0.0 0.00 0.01 0.00 79 1013.2
20260503051343 63 331 0.0 0.0 0.00 0.01 0.00 79 1013.2
20260503050830 63 331 0.0 2.0 0.00 0.01 0.00 79 1013.1
20260503050336 63 331 0.0 2.0 0.00 0.01 0.00 78 1013.2
20260503045832 63 332 0.0 2.0 0.00 0.01 0.00 79 1013.2
20260503044846 63 8 1.0 1.0 0.00 0.01 0.00 78 1013.3
20260503044344 63 9 0.0 0.0 0.00 0.01 0.00 78 1013.5
20260503043847 63 9 0.0 0.0 0.00 0.01 0.00 77 1013.6
20260503043350 64 9 0.0 0.0 0.00 0.01 0.00 77 1013.6
20260503042850 64 9 0.0 0.0 0.00 0.01 0.00 76 1013.3
20260503042345 64 9 0.0 0.0 0.00 0.01 0.00 76 1013.2
20260503041842 64 9 0.0 1.0 0.00 0.01 0.00 75 1013.3
20260503041336 64 9 0.0 1.0 0.00 0.01 0.00 75 1013.2
20260503040838 64 9 0.0 1.0 0.00 0.01 0.00 75 1013.1
20260503040341 64 9 0.0 1.0 0.00 0.01 0.00 75 1013.1
20260503035841 64 9 0.0 0.0 0.00 0.01 0.00 75 1013.2
20260503035344 64 9 0.0 0.0 0.00 0.01 0.00 75 1013.2
20260503034841 64 9 0.0 0.0 0.00 0.01 0.00 75 1013.3
20260503034333 64 9 0.0 1.0 0.00 0.01 0.00 75 1013.3
20260503033831 65 9 0.0 1.0 0.00 0.01 0.00 75 1013.3
20260503033335 65 9 0.0 0.0 0.00 0.01 0.00 74 1013.2
20260503032840 65 9 0.0 0.0 0.00 0.01 0.00 74 1013.1
20260503032335 65 9 0.0 0.0 0.00 0.01 0.00 73 1013.1
20260503031833 65 9 0.0 0.0 0.00 0.01 0.00 73 1013.1
20260503031332 65 9 0.0 1.0 0.00 0.01 0.00 73 1013.0
20260503030349 66 9 0.0 2.0 0.00 0.01 0.00 71 1012.9
20260503025834 66 9 1.0 2.0 0.00 0.01 0.00 71 1012.9
20260503025334 66 23 1.0 2.0 0.00 0.01 0.00 71 1012.8
20260503024840 66 133 0.0 3.0 0.00 0.01 0.00 71 1013.0
20260503024341 66 133 0.0 3.0 0.00 0.01 0.00 71 1013.1
20260503023839 66 133 2.0 6.0 0.00 0.01 0.00 71 1013.1
20260503023347 66 171 1.0 7.0 0.00 0.01 0.00 71 1013.1
20260503022831 66 163 3.0 11.0 0.00 0.01 0.00 71 1013.1
20260503022348 66 173 6.0 11.0 0.00 0.01 0.00 70 1013.1
20260503021845 66 154 4.0 11.0 0.00 0.01 0.00 70 1013.2
20260503021345 67 134 6.0 11.0 0.00 0.01 0.00 70 1013.1
20260503020840 67 194 10.0 12.0 0.00 0.01 0.00 69 1013.2
20260503020344 68 155 4.0 12.0 0.00 0.01 0.00 67 1013.2
20260503015846 69 179 10.0 10.0 0.00 0.01 0.00 66 1013.1
20260503015333 69 185 5.0 6.0 0.00 0.01 0.00 65 1012.7
20260503014831 69 198 1.0 6.0 0.00 0.01 0.00 64 1012.3
20260503014330 69 160 2.0 7.0 0.00 0.01 0.00 64 1012.4
20260503013830 69 198 2.0 7.0 0.00 0.01 0.00 64 1012.3
20260503013344 70 193 4.0 5.0 0.00 0.01 0.00 63 1012.3
20260503012848 70 207 4.0 5.0 0.00 0.01 0.00 63 1012.2
20260503012329 70 217 5.0 6.0 0.00 0.01 0.00 62 1012.3
20260503011831 70 191 4.0 6.0 0.00 0.01 0.00 62 1012.2
20260503011331 71 172 2.0 4.0 0.00 0.01 0.00 61 1012.2
20260503010847 71 178 3.0 4.0 0.00 0.01 0.00 60 1012.2
20260503010342 71 175 3.0 5.0 0.00 0.01 0.00 60 1012.2
20260503005844 72 190 2.0 5.0 0.00 0.01 0.00 58 1012.2
20260503005330 72 216 2.0 3.0 0.00 0.01 0.00 57 1012.1
20260503004836 73 204 1.0 3.0 0.00 0.01 0.00 56 1012.2
20260503004340 73 214 0.0 3.0 0.00 0.01 0.00 57 1012.1
20260503003838 73 226 3.0 3.0 0.00 0.01 0.00 55 1012.2
20260503003337 74 347 0.0 2.0 0.00 0.01 0.00 54 1012.1
20260503002833 74 343 1.0 2.0 0.00 0.01 0.00 55 1012.1
20260503002333 74 302 0.0 3.0 0.00 0.01 0.00 55 1012.1
20260503001838 73 311 0.0 4.0 0.00 0.01 0.00 55 1012.0
20260503000848 73 178 4.0 6.0 0.00 0.01 0.00 56 1012.1
20260503000327 72 359 0.0 6.0 0.00 0.01 0.00 55 1012.2
20260502235844 72 0 4.0 5.0 0.00 0.01 0.00 55 1012.4
20260502235344 72 248 1.0 3.0 0.00 0.01 0.00 57 1012.3
20260502234846 72 249 0.0 3.0 0.00 0.01 0.00 58 1012.3
20260502234331 72 193 1.0 1.0 0.00 0.01 0.00 57 1012.4
20260502233833 71 202 0.0 5.0 0.00 0.01 0.00 58 1012.5
20260502233335 71 201 2.0 5.0 0.00 0.01 0.00 58 1012.6
20260502232833 72 298 0.0 5.0 0.00 0.01 0.00 58 1012.7
20260502232348 71 293 3.0 5.0 0.00 0.01 0.00 58 1012.8
20260502231847 71 242 4.0 4.0 0.00 0.01 0.00 57 1012.8
20260502231331 70 225 0.0 2.0 0.00 0.01 0.00 59 1012.9
20260502230343 69 299 0.0 4.0 0.00 0.01 0.00 60 1013.0
20260502225844 69 319 4.0 4.0 0.00 0.01 0.00 59 1013.0
20260502224841 69 359 0.0 2.0 0.00 0.01 0.00 60 1013.1
20260502224342 69 0 0.0 4.0 0.00 0.01 0.00 60 1013.3
20260502223347 69 359 4.0 6.0 0.00 0.01 0.00 60 1013.5
20260502222851 69 18 0.0 4.0 0.00 0.01 0.00 60 1013.7
20260502222341 69 348 4.0 4.0 0.00 0.01 0.00 61 1013.7
20260502221838 69 6 3.0 7.0 0.00 0.01 0.00 61 1013.8
20260502221335 68 283 2.0 7.0 0.00 0.01 0.00 61 1013.9
20260502220836 69 319 1.0 5.0 0.00 0.01 0.00 60 1013.9
20260502220336 69 179 0.0 4.0 0.00 0.01 0.00 61 1013.9
20260502215843 68 216 0.0 4.0 0.00 0.01 0.00 62 1014.1
20260502215326 67 295 2.0 3.0 0.00 0.01 0.00 64 1014.2
20260502213844 66 268 0.0 4.0 0.00 0.01 0.00 64 1014.3
20260502213345 66 217 0.0 3.0 0.00 0.01 0.00 63 1014.4
20260502212832 66 329 0.0 4.0 0.00 0.01 0.00 65 1014.4
20260502211836 66 0 4.0 4.0 0.00 0.01 0.00 65 1014.8
20260502211337 66 264 2.0 3.0 0.00 0.01 0.00 64 1014.8
20260502210837 65 346 0.0 5.0 0.00 0.01 0.00 64 1014.8
20260502205842 65 359 2.0 5.0 0.00 0.01 0.00 67 1014.8
20260502205328 65 329 1.0 4.0 0.00 0.01 0.00 67 1015.1
20260502204831 64 349 3.0 4.0 0.00 0.01 0.00 66 1015.2
20260502203831 64 231 0.0 3.0 0.00 0.01 0.00 69 1015.4
20260502203326 63 327 0.0 6.0 0.00 0.01 0.00 69 1015.6
20260502202334 63 227 0.0 5.0 0.00 0.01 0.00 69 1015.6
20260502201341 62 10 4.0 4.0 0.00 0.01 0.00 71 1015.7
20260502200337 61 210 0.0 6.0 0.00 0.01 0.00 72 1015.9
20260502195837 60 327 0.0 3.0 0.00 0.01 0.00 73 1016.0
20260502195339 60 0 0.0 3.0 0.00 0.01 0.00 74 1015.9
20260502193836 59 313 0.0 5.0 0.00 0.01 0.00 75 1016.1
20260502193330 59 302 0.0 5.0 0.00 0.01 0.00 75 1016.0
20260502192830 59 344 2.0 4.0 0.00 0.01 0.00 75 1016.1
20260502191338 57 258 0.0 5.0 0.00 0.01 0.00 77 1016.4
20260502190845 57 197 3.0 5.0 0.00 0.01 0.00 78 1016.6
20260502190329 57 200 4.0 6.0 0.00 0.01 0.00 77 1016.9
20260502185844 57 200 4.0 6.0 0.00 0.01 0.00 76 1016.8
20260502185343 58 206 2.0 4.0 0.00 0.01 0.00 76 1016.7
20260502184843 58 321 0.0 4.0 0.00 0.01 0.00 76 1016.8
20260502184345 58 254 0.0 4.0 0.00 0.01 0.00 77 1016.8
20260502183339 57 0 1.0 6.0 0.00 0.01 0.00 77 1016.5
20260502181829 56 337 0.0 5.0 0.00 0.01 0.00 80 1016.7
20260502181344 56 335 2.0 5.0 0.00 0.01 0.00 80 1016.7
20260502180830 56 326 3.0 4.0 0.00 0.01 0.00 80 1016.8
20260502180336 56 325 4.0 4.0 0.00 0.01 0.00 80 1016.9